Zurück zum Katalog

CAPELLA-18

ACADIA

AktivWissenschaftSSO
NORAD 67385·PAYLOAD·🇺🇸 United States

Gestartet Jan 11, 2026 von Vandenberg Space Force Base

Loading…

Nächste Überflüge (nächste 24 Stunden)

TLE

AktuellSource: Space-Track

Epoche: Sep 14, 2026, 10:59 UTC

1 67385U 26004Y   26257.45806017  .00003206  00000-0  36702-3 0  9996
2 67385  97.8068 254.3930 0001469  96.0222 264.1161 14.86655524 36541

Verfolge CAPELLA-18 in Echtzeit mit AllMySat

Download on the App Store